Regional Weather Roundup
Issued by NWS

Home | Current Version | Previous Version | Graphics & Text | Print | Product List | Glossary Off
Versions: 1 2 3 4 5 6 7 8 9 10 11 12 13 14 15 16 17 18 19 20 21 22 23 24 25 26 27 28 29 30 31 32 33 34 35 36 37 38 39 40 41 42 43 44 45 46 47 48 49 50

378
ASUS43 KIND 241809
RWRIN

WEATHER ROUNDUP FOR INDIANA
NATIONAL WEATHER SERVICE INDIANAPOLIS IN
100 PM EST FRI FEB 24 2017

NOTE: "FAIR" INDICATES FEW OR NO CLOUDS BELOW 12,000 FEET WITH NO
SIGNIFICANT WEATHER AND/OR OBSTRUCTIONS TO VISIBILITY.

* - STATION DOES NOT REPORT WEATHER SUCH AS PRECIPITATION OR FOG.

+ - STATION NOT QUALITY CONTROLLED BY THE NATIONAL WEATHER SERVICE.
    USE DATA WITH CAUTION...ESPECIALLY DEWPOINT AND RELATIVE
    HUMIDITY OBSERVATIONS.

INZ001>003-010>013-019-020-241900-
NORTHWEST INDIANA

CITY           SKY/WX    TMP DP  RH WIND       PRES   REMARKS
GARY /AIRPORT/ FOG       41  39  93 N9        29.47S VSB 1
KNOX *+        CLOUDY    64  36  34 SW15G25   29.45S
LA PORTE +     CLOUDY    63  57  80 SW13G18   29.45F
6HR MIN TEMP:  56; 6HR MAX TEMP:  63; 6HR PCP:  0.02;

MICHIGAN CITY+ CLOUDY    50  50 100 W3        29.45F
MONTICELLO +   CLOUDY    65  55  72 SW15G24   29.46F
6HR MIN TEMP:  59; 6HR MAX TEMP:  67; 6HR PCP:  0.01;

RENSSELAER +   CLOUDY    64  57  77 S18G25    29.45F
VALPARAISO     CLOUDY    65  57  75 SW13G23   29.44F
6HR MIN TEMP:  58; 6HR MAX TEMP:  66; 6HR PCP:  0.02;


$$

LMZ046-743>745-241900-
SOUTHERN LAKE MICHIGAN

STATION/POSITION TIME  TEMP    WIND        PRES    WAVE
                       AIR SEA DIR/SP/G            HT
                 (UTC) (F)     (DEG/KT/KT) (MB)    (FT)
BURNS HARBOR     1740   37     270/  5/  6  998.3F
MICHIGAN CITY    1740   36     220/  9/ 10   N/A

$$

INZ004-005-014>016-021>024-241900-
NORTH CENTRAL INDIANA

CITY           SKY/WX    TMP DP  RH WIND       PRES   REMARKS
ELKHART        CLOUDY    64  55  72 S10G17    29.46F
GOSHEN         CLOUDY    65  54  67 S16       29.46F
6HR MIN TEMP:  52; 6HR MAX TEMP:  65; 6HR PCP: TRACE;

LOGANSPORT +   CLOUDY    64  54  68 SW17G25   29.51R
PERU/GRISSOM   CLOUDY    67  55  64 SW23G31   29.49S
6HR MIN TEMP:  57; 6HR MAX TEMP:  71; 6HR PCP: TRACE;

ROCHESTER +    TSTM      66  55  68 S16G23    29.48F
SOUTH BEND     CLOUDY    63  56  78 SW14      29.46F
6HR MIN TEMP:  52; 6HR MAX TEMP:  63; 6HR PCP:  0.05;

WARSAW +       LGT RAIN  64  55  72 SW7       29.48S

$$

INZ006>009-017-018-025>027-241900-
NORTHEAST INDIANA

CITY           SKY/WX    TMP DP  RH WIND       PRES   REMARKS
ANGOLA *+      CLOUDY    64  57  77 SW9       29.48F
AUBURN +       PTSUNNY   68  54  60 S9G18     29.49F
FORT WAYNE     CLOUDY    69  55  60 S21G30    29.49F
6HR MIN TEMP:  52; 6HR MAX TEMP:  69;

HUNTINGTON +   CLOUDY    68  55  61 S15G26    29.49F
6HR MIN TEMP:  56; 6HR MAX TEMP:  69;

KENDALLVILLE + CLOUDY    64  56  75 SW8       29.50F

$$

INZ028-029-035-036-043>045-051>053-241900-
WEST CENTRAL INDIANA

CITY           SKY/WX    TMP DP  RH WIND       PRES   REMARKS
LAFAYETTE      CLOUDY    66  56  70 SW13G29   29.48S
6HR MIN TEMP:  60; 6HR MAX TEMP:  67; 6HR PCP: TRACE;

TERRE HAUTE    CLOUDY    66  55  67 SW12      29.54R
6HR MIN TEMP:  61; 6HR MAX TEMP:  69; 6HR PCP:  0.03;


$$

INZ030>032-037>040-046>048-054>057-064-065-241900-
CENTRAL INDIANA

CITY           SKY/WX    TMP DP  RH WIND       PRES   REMARKS
ANDERSON       PTSUNNY   72  54  53 S23G40    29.53F
CP ATTERBURY + MOSUNNY   75  46  35 SW22G39   29.54F
COLUMBUS       MOSUNNY   73  54  49 S25G37    29.55F
FISHERS *+     MOSUNNY   72  55  56 SW20G30   29.53
FRANKFORT +    CLOUDY    68  56  65 SW20G31   29.53R
6HR MIN TEMP:  60; 6HR MAX TEMP:  71;

GREENWOOD *+   MOSUNNY   74  52  46 SW21G32   29.55F
6HR MIN TEMP:  58; 6HR MAX TEMP:  74;

INDIANAPOLIS   PTSUNNY   74  52  46 SW26G40   29.53F
6HR MIN TEMP:  59; 6HR MAX TEMP:  74;

-EAGLE CREEK   CLOUDY    72  52  49 SW15G24   29.53S
6HR MIN TEMP:  59; 6HR MAX TEMP:  72;

KOKOMO +       CLOUDY    68  55  63 SW24G33   29.51F
MARION +       CLOUDY    70  54  56 SW22G28   29.52F HAZE
MT COMFORT *+  MOSUNNY   72  50  46 SW23G35   29.53F
SHELBYVILLE    MOSUNNY   75  51  43 S28G36    29.53F
6HR MIN TEMP:  59; 6HR MAX TEMP:  76;

ZIONSVILLE +   PTSUNNY   66  53  61 S25G32    29.52F
6HR MIN TEMP:  57; 6HR MAX TEMP:  69;


$$

INZ033-034-041-042-049-050-058-059-241900-
EAST CENTRAL INDIANA

CITY           SKY/WX    TMP DP  RH WIND       PRES   REMARKS
MUNCIE         CLOUDY    72  54  53 S25G35    29.51F
6HR MIN TEMP:  60; 6HR MAX TEMP:  73;


$$

INZ060-061-067>069-081>083-085>088-241900-
SOUTHWEST INDIANA

CITY           SKY/WX    TMP DP  RH WIND       PRES   REMARKS
EVANSVILLE     SUNNY     76  52  43 SW26G35   29.58F
6HR MIN TEMP:  62; 6HR MAX TEMP:  76;

HUNTINGBURG *+ MOSUNNY   74  55  51 S20G29    29.58F
6HR MIN TEMP:  62; 6HR MAX TEMP:  74;

WASHINGTON +   CLOUDY    73  50  44 SW18G32   29.55F
6HR MIN TEMP:  61; 6HR MAX TEMP:  73;


$$

INZ062-063-066-070>080-084-089>092-241900-
SOUTH CENTRAL AND SOUTHEAST INDIANA

CITY           SKY/WX    TMP DP  RH WIND       PRES   REMARKS
BEDFORD +      MOSUNNY   75  50  41 S17G30    29.57F
BLOOMINGTON    PTSUNNY   73  52  47 SW23G36   29.55F
6HR MIN TEMP:  63; 6HR MAX TEMP:  73;

MADISON *+     MOSUNNY   73  50  43 S20G32    29.62F
NORTH VERNON + MOSUNNY   73  52  46 SW25G31   29.60F

$$





USA.gov is the U.S. government's official web portal to all federal, state and local government web resources and services.